weather.gov     
National Weather Service

Weather Roundup
NWS Homepage
This page is being discontinued on March 12, 2014.
The same data is available at this site. Please update your bookmarks.
Thank you, and we apologize for the inconvenience.
Please send an email to SR-SRH.Webmaster@noaa.gov with any concerns.


Current Version
Previous Version:    01  02  03  04  05  06  07  08  09  10  11  12  13  14  15  16  17  18  19  20  21  22  23  24  25  26  27  28  29  30  
   31  32  33  34  35  36  37  38  39  40  41  42  43  44  45  46  47  48  49  50  51  52  53  54  55  56  57  58  59  60  
[Printable]
364
NZUS93 KARX 230710
HRRWXR

CURRENT HOURLY OBSERVATIONS ACROSS
MUCH OF THE UPPER MISSISSIPPI VALLEY
NATIONAL WEATHER SERVICE LA CROSSE WI
200 AM CDT WED APR 23 2014


...SOUTHEAST MINNESOTA...


CITY           SKY/WX    TMP DP  RH WIND       PRES   REMARKS
ROCHESTER      PTCLDY    41  25  53 E13       30.08F
ROCHESTER/MAYO FAIR      43  24  46 E8        30.08F
WINONA         CLEAR     37  34  87 CALM      30.12S
AUSTIN         MOCLDY    43  30  61 E6        30.06F
ALBERT LEA     MOCLDY    46  28  49 E8        30.06S
DODGE CENTER   PTCLDY    41  30  65 E7        30.07S
PRESTON        PTCLDY    43  26  52 E8        30.09S
OWATONNA       MOCLDY    45  27  49 E10       30.07S
FARIBAULT      MOCLDY    48  21  34 E6        30.07S
$$

...ELSEWHERE IN MINNESOTA...


CITY           SKY/WX    TMP DP  RH WIND       PRES   REMARKS
MINNEAPOLIS    PTCLDY    44  25  47 E9        30.08S
INTNL FALLS    CLEAR     26  22  84 CALM      30.09S
DULUTH         CLEAR     36  20  52 E3        30.10S
RED WING       CLEAR     34  27  75 E6        30.09F WCI  29
REDWOOD FALLS  CLOUDY    50  29  44 SE15      30.00F
MANKATO        CLOUDY    46  27  46 E10       30.06S
WORTHINGTON    CLOUDY    52  30  43 SE14      30.01S
FAIRMONT       CLOUDY    48  34  57 SE10      30.05F
$$

...SOUTHWEST WISCONSIN...


CITY           SKY/WX    TMP DP  RH WIND       PRES   REMARKS
LA CROSSE      CLEAR     43  26  51 CALM      30.12S
PRAIRIE DU CHI CLEAR     37  31  78 CALM      30.10F
BOSCOBEL       CLEAR     37  30  75 CALM      30.12R
LONE ROCK      CLEAR     38  28  67 CALM      30.13R
PLATTEVILLE    CLEAR     40  27  58 NE10      30.11S WCI  34
FORT MC COY    CLEAR     29  24  81 CALM      30.13F
CAMP DOUGLAS   CLEAR     27  27  99 CALM      30.13S
VIROQUA        FAIR      36  27  70 E7        30.10S WCI  30
WIS DELLS      CLEAR     35  26  69 CALM      30.12S
$$

...ELSEWHERE IN WISCONSIN...


CITY           SKY/WX    TMP DP  RH WIND       PRES   REMARKS
MILWAUKEE      CLEAR     35  29  78 N8        30.13R WCI  29
MADISON        CLEAR     35  28  75 NW3       30.13R
GREEN BAY      CLEAR     32  28  85 W5        30.14R WCI  27
EAU CLAIRE     CLEAR     30  23  75 NE5       30.11F WCI  25
BLACK RVR FLS  FAIR      27  24  89 CALM      30.13S
MEDFORD        CLEAR     29  27  91 CALM      30.12S
WAUSAU         CLEAR     31  26  82 NW3       30.12R
WIS RAPIDS     CLEAR     30  25  81 CALM      30.14R
MARSHFIELD     CLEAR     34  25  69 CALM      30.12S
RICE LAKE      CLEAR     30  28  90 CALM      30.14R
$$

...NORTHEAST IOWA...


CITY           SKY/WX    TMP DP  RH WIND       PRES   REMARKS
WATERLOO       CLOUDY    45  33  63 E6        30.07S
DUBUQUE        CLEAR     39  27  62 NE7       30.09S WCI  34
DECORAH        PTCLDY    43  27  52 E9        30.08F
MASON CITY     CLOUDY    47  31  53 E12       30.07S
CHARLES CITY   CLOUDY    45  30  57 E9        30.08R
OELWEIN        CLOUDY   N/A N/A N/A E8        30.08S
$$

...ELSEWHERE IN IOWA...


CITY           SKY/WX    TMP DP  RH WIND       PRES   REMARKS
DES MOINES     CLOUDY    54  32  43 E7        30.05S
IOWA CITY      MOCLDY    46  31  55 NE7       30.08S
FORT DODGE     CLOUDY    50  36  57 SE12      30.04F
MARSHALLTOWN   CLOUDY    47  35  63 E6        30.06R
CEDAR RAPIDS   MOCLDY    45  30  55 NE9       30.06S
$$

...NORTHERN ILLINOIS...


CITY           SKY/WX    TMP DP  RH WIND       PRES   REMARKS
CHICAGO-OHARE  CLEAR     38  27  64 NE9       30.11R WCI  31
DUPAGE         CLEAR     32  25  75 NE8       30.10S WCI  25
CHICAGO-MIDWAY CLEAR     39  29  67 N14       30.11R WCI  31
MOLINE         CLEAR     41  32  70 E10       30.09R
ROCKFORD       CLEAR     37  27  67 NE3       30.13R
STERLING       CLEAR     36  30  80 E5        30.11R WCI  32
PEORIA         CLEAR     42  29  59 E14       30.09S
$$

NOTE: "FAIR" INDICATES FEW OR NO CLOUDS BELOW 12,000 FEET WITH NO
SIGNIFICANT WEATHER AND/OR OBSTRUCTIONS TO VISIBILITY. WIND
SPEEDS ARE IN MILES-PER-HOUR.




U.S. Dept. of Commerce
NOAA National Weather Service
1325 East West Highway
Silver Spring, MD 20910
E-mail: w-nws.webmaster@noaa.gov
Page last modified: May 16, 2007
NATIONAL WEATHER SERVICE: for Safety, for Work, for Fun - FOR LIFE